sat.trackr.live / text

‹ back to catalog

STARLINK-31248

NORAD 58840 · 2024-017Q

PAYLOAD ACTIVE UNKNOWN

§ Identity

Operator
Country
US
Launch date
2024-01-24
Launch site
AFWTR
Launch vehicle
Mass (kg)
RCS (m²)

Purposes: comms

External: N2YO · Heavens-Above · Gunter

§ Orbital elements

Epoch: 2026-05-25T04:34:59.026944Z

Period
93.85 min
Inclination
53.1600°
Eccentricity
0.0000702
Mean motion
15.34389608 rev/d
Perigee alt
462.3 km
Apogee alt
463.2 km
Semi-major
6,840.9 km
B*
5.2432e-5
RAAN
220.6932°
Arg perigee
101.5126°
Mean anomaly
258.5956°
Rev number
13,171

§ Raw data

STARLINK-312481 58840U 24017Q   26145.19096096  .00001395  00000+0  52432-4 0  99942 58840  53.1600 220.6932 0000702 101.5126 258.5956 15.34389608131711

JSON: /api/v1/satellites/58840 · /tle

For live sub-satellite position, see the globe view (requires WebGL).

§ Visibility from observer

Set your observer location to see the next 7 days of passes ≥ 10°. The values pass through the URL so the page stays shareable.

No JS? Fill the form by hand. The geolocation button needs JavaScript.